Regional Weather Roundup
Issued by NWS

Home | Current Version | Previous Version | Graphics & Text | Print | Product List | Glossary On
Versions: 1 2 3 4 5 6 7 8 9 10 11 12 13 14 15 16 17 18 19 20 21 22 23 24 25 26 27 28 29 30 31 32 33 34 35 36 37 38 39 40 41 42 43 44 45 46 47 48 49 50
000
ASUS43 KMPX 300910
RWRMN
WEATHER ROUNDUP FOR MINNESOTA
NATIONAL WEATHER SERVICE TWIN CITIES/CHANHASSEN MN
300 AM CST FRI JAN 30 2015


NOTE: "FAIR" INDICATES FEW OR NO CLOUDS BELOW 12,000 FEET WITH NO
SIGNIFICANT WEATHER AND/OR OBSTRUCTIONS TO VISIBILITY. N/A MEANS
CURRENT SKY AND/OR WEATHER CONDITIONS ARE NOT AVAILABLE.

MNZ060>063-068>070-301000-
   Twin Cities Metro

CITY           SKY/WX    TMP DP  RH WIND       PRES   REMARKS
TWIN CITIES    PTCLDY    13   6  74 N7        30.55S WCI   3
ST PAUL        CLEAR     12   5  73 N8        30.57S WCI   0
CRYSTAL        CLEAR     13   6  74 N5        30.54F WCI   5
BLAINE         CLEAR     12   7  79 CALM      30.54S
LAKEVILLE      CLEAR     10   7  85 NW3       30.53F
EDEN PRAIRIE   CLEAR     11   5  77 NW6       30.54S WCI   1
SOUTH ST PAUL  CLEAR     14   6  70 N6        30.55S WCI   5
LAKE ELMO      FAIR      10   5  79 CALM      30.55S
$$
MNZ001>005-007-008-013>017-022>024-027-028-301000-
   Northwest Minnesota

CITY           SKY/WX    TMP DP  RH WIND       PRES   REMARKS
BEMIDJI        MOCLDY    -2  -5  87 CALM      30.46F
HALLOCK        CLOUDY     5   0  78 S9        30.49S WCI  -9
ROSEAU         CLOUDY     0  -6  78 CALM      30.50S
WARROAD        CLOUDY    -2  -8  78 CALM      30.50R
THIEF RVR FALL CLOUDY     1   0  92 SE8       30.48F WCI -12
CROOKSTON      PTCLDY     5   1  85 SE9       30.50F WCI  -9
FOSSTON        MOCLDY     0  -4  85 CALM      30.49S
DETROIT LAKES  MOCLDY     5   1  85 SE6       30.48F WCI  -6
MOORHEAD       PTCLDY     9   3  78 SE5       30.52F WCI   0
PARK RAPIDS    PTCLDY     3  -1  83 CALM      30.46F
MAHNOMEN       PTSUNNY    3  -1  82 SE3       30.49S
$$
MNZ006-009>011-018-025>026-301000-
   North Central Minnesota

CITY           SKY/WX    TMP DP  RH WIND       PRES   REMARKS
BAUDETTE       CLOUDY    -4  -9  79 SW3       30.47S
FLAG ISLAND    CLOUDY    -4  -9  77 SW5       30.48S WCI -15
INTL FALLS     PTCLDY   -12 -17  78 CALM      30.47F
WASKISH        MOCLDY    -2  -8  78 CALM      30.48S
BIG FORK       PTCLDY    -9 -15  77 CALM      30.47F
LONGVILLE      MOCLDY     1  -2  85 CALM      30.48F
GRAND RAPIDS   MOCLDY     1  -4  78 CALM      30.46F
CRANE LAKE     MOCLDY    -8 -11  84 CALM      30.50F
ORR            PTCLDY    -8 -13  77 CALM      30.44S
COOK           PTCLDY    -9 -13  84 CALM      30.47F
WALKER         FAIR      -1  -4  86 CALM      30.46F
$$
MNZ012-019>021-037-301000-
   Northeast Minnesota

CITY           SKY/WX    TMP DP  RH WIND       PRES   REMARKS
DULUTH         FAIR       0  -5  79 NW6       30.46S WCI -12
ELY            CLOUDY     1  -2  85 NW1       30.45S
HIBBING        FAIR      -6 -12  75 CALM      30.47F
EVELETH        PTCLDY    -2  -6  84 SW3       30.48F
DULUTH HARBOR  PTCLDY     7   0  72 W7        30.56S WCI  -5
TWO HARBORS    CLEAR      3  -2  78 CALM      30.46S
SILVER BAY     PTCLDY     3  -2  78 CALM      30.46S
GRAND MARAIS     N/A      3  -5  69 W5        30.50F WCI  -6
G MARAIS ARPRT PTCLDY    -2  -9  71 NW6       30.36F WCI -14
$$
MNZ029>031-032-039>041-046>048-054>057-064-301000-
   West Central Minnesota

CITY           SKY/WX    TMP DP  RH WIND       PRES   REMARKS
FERGUS FALLS   PTCLDY     7   0  72 SE6       30.54F WCI  -3
WHEATON        CLEAR      7   3  85 SE5       30.55S WCI  -2
MORRIS         CLEAR      9   3  78 CALM      30.51F
ALEXANDRIA     PTCLDY     7   2  80 CALM      30.49F
ELBOW LAKE     FAIR       8   3  82 CALM      30.51F
WADENA         MOCLDY     3   0  85 CALM      30.47F
GLENWOOD       PTCLDY     7   3  85 CALM      30.51S
APPLETON       CLEAR     10   7  85 CALM      30.53F
BENSON         CLEAR      9   3  78 CALM      30.53S
ORTONVILLE     CLEAR     10   7  85 E3        30.52F
MADISON        CLOUDY    18  14  86 CALM      30.54S
WILLMAR        FAIR      10   5  79 CALM      30.54S
$$
MNZ033>034-036-042>043-049>051-058-059-301000-
   Central Minnesota

CITY           SKY/WX    TMP DP  RH WIND       PRES   REMARKS
ST CLOUD       CLEAR      9   4  80 CALM      30.52F
SAUK CENTRE    FAIR       7   2  82 CALM      30.51S
PAYNESVILLE    CLEAR      6   3  88 CALM      30.52F
AITKIN         PTCLDY     9   1  72 CALM      30.48F
PINE RIVER     PTCLDY     1  -2  85 CALM      30.51F
BRAINERD       PTCLDY     4   0  83 CALM      30.50F
STAPLES        PTCLDY     3   1  92 CALM      30.48F
LONG PRAIRIE   FAIR       7   3  85 CALM      30.50F
LITTLE FALLS   PTCLDY     7   3  85 CALM      30.52F
LITCHFIELD     PTCLDY    10   9  92 CALM      30.52F
BUFFALO        CLEAR     11   6  81 CALM      30.55S
MAPLE LAKE     CLEAR     11   8  87 CALM      30.54S
$$
MNZ037-044-045-052-053-301000-
   East Central Minnesota

CITY           SKY/WX    TMP DP  RH WIND       PRES   REMARKS
PRINCETON      CLEAR      9   3  78 CALM      30.53S
MORA           PTCLDY     7   1  78 CALM      30.54F
CAMBRIDGE      PTCLDY    10   1  67 CALM      30.52F
RUSH CITY      CLEAR      8   2  76 N5        30.55S WCI   0
MOOSE LAKE     PTCLDY     3   0  85 CALM      30.51S
HINCKLEY       FAIR       7   1  78 CALM      30.53F
CLOQUET        PTCLDY     0  -6  78 W7        30.49S WCI -13
MCGREGOR       PTCLDY     5   1  85 N3        30.50F
$$
MNZ071>073-080-081-089-090-097-098-301000-
   Southwest Minnesota

CITY           SKY/WX    TMP DP  RH WIND       PRES   REMARKS
MONTEVIDEO     CLEAR     10   7  85 CALM      30.54
GRANITE FALLS  CLEAR     12   8  84 CALM      30.55F
CANBY          PTCLDY    15  11  86 CALM      30.53F
MARSHALL       CLOUDY    16   9  73 NE5       30.53F WCI   9
REDWOOD FALLS  FAIR      13   8  81 CALM      30.54F
OLIVIA         PTCLDY    10   7  85 CALM      30.53S
PIPESTONE      CLOUDY    18  16  93 CALM      30.48S
WINDOM         CLEAR     12  10  92 CALM      30.51F
WORTHINGTON    CLOUDY    16  12  86 NE7       30.50F WCI   6
JACKSON        CLEAR     14  12  92 CALM      30.51F
TRACY          MOCLDY    15  13  89 CALM      30.52S
SLAYTON        CLOUDY    17  13  86 CALM      30.50S
$$
MNZ065>067-074>077-082>085-091>093-301000-
   South Central Minnesota

CITY           SKY/WX    TMP DP  RH WIND       PRES   REMARKS
MANKATO        CLEAR     12   7  79 N5        30.53F WCI   4
NEW ULM        CLEAR     12   7  79 CALM      30.54F
ST JAMES       CLEAR     14  10  85 CALM      30.55F
FAIRMONT       CLEAR     12   7  79 N7        30.52S WCI   2
GLENCOE        CLEAR     13   9  86 N5        30.53F WCI   5
FARIBAULT      CLEAR     12   9  85 CALM      30.53F
OWATONNA       CLEAR     12   9  85 NW3       30.52F
WASECA         CLEAR     14  10  85 NW5       30.54F WCI   6
ALBERT LEA     CLEAR     14  10  85 N7        30.51F WCI   4
$$
MNZ078>079-086>088-094>096-301000-
   Southeast Minnesota

CITY           SKY/WX    TMP DP  RH WIND       PRES   REMARKS
ROCHESTER      CLEAR     11   4  73 N8        30.50S WCI  -1
RED WING       PTCLDY    10   3  72 CALM      30.55S
STANTON        CLEAR     14   7  73 CALM      30.53F
DODGE CENTER   PTCLDY    10   7  85 N3        30.50F
WINONA         CLEAR     14   9  79 NW7       30.56R WCI   4
AUSTIN         CLEAR     12   9  85 N5        30.51F WCI   4
PRESTON        CLEAR     10   5  79 N8        30.50S WCI  -1
$$
ABBREVIATIONS USED IN REMARKS
   TC - TEMPERATURES IN CELSIUS
  WCI - WIND CHILL INDEX
   HX - HEAT INDEX
  VSB - VISIBILITY
$$


USA.gov is the U.S. government's official web portal to all federal, state and local government web resources and services.